Location: Sternwarte ZA, Rosenfeld-Brittheim
(48.2889°N, 8.6789°E)
Time: 22:03:14
(UTC+01:00)

ISS - Pass Details

Date: 02 March 2021
Orbit: 417 x 422 km, 51.6° (Epoch: 02 March)

Event Time Altitude Azimuth Distance (km) Brightness Sun altitude
Exits shadow 04:08:10 16° 67° (ENE) 1,179 -0.7 -29.5°
Drops below altitude 10° 04:08:58 10° 68° (ENE) 1,499 0.0 -29.4°
Sets 04:11:04 0° 69° (ENE) 2,365 1.3 -29.1°
